STARLINK-5719 (55609 NORAD) Tracking and Keplerian Element Data

This shows tracking and keplerian element data for the satellite.

Feedback or suggestion? Click here.




ElementValue
Catalog55609
NameSTARLINK-5719
Epoch Orbit660
Epoch Day85.25001157
Epoch Year2023
RAAN103.8553
Inclination42.9983
Eccentricity0.0001459
Argument of Perigee270.3531
Mean Anonmoly97.6372
Mean Motion15.4893429
Decay Rate-0.00048183
L11 55609U 23020AS 23085.25001157 -.00048183 00000+0 -86987-3 0 9997
L22 55609 42.9983 103.8553 0001459 270.3531 97.6372 15.48934290 6608



Live tracking and technical data element details for STARLINK-5719 (NORAD 55609). STARLINK-5719 can be tracked NOW for your location showing map with azimuth and elevation plus other details from your city location.







IsCatalogInMostPopularTable: catalog: 55609, numindb: -1

Insert: records affected: 1


GetName: 55609 STARLINK-5719

Hit Count: inserted at: Tue, 28 Mar 2023 02:51:59 GMT